Location: ???? ????
(41.4149°N, 22.8816°E)
Time: 14:45:16
(UTC+00:00)

Cosmos 2016 Rocket - Pass Details

Date: 14 July 2020
Orbit: 948 x 999 km, 83.0° (Epoch: 03 August)

Event Time Altitude Azimuth Distance (km) Brightness Sun altitude
Exits shadow 00:09:03 44° 173° (S) 1,299 4.2 -23.2°
Maximum altitude 00:11:08 79° 95° (E) 984 4.0 -23.1°
Drops below altitude 10° 00:17:21 10° 10° (N) 2,722 7.4 -22.6°
Sets 00:19:53 0° 9° (N) 3,681 8.3 -22.4°
